Details From KPNA - Ralph Wenz Fld
To SVMI - Caracas Simon Bolivar Intl
Flight Number -
Tags Decoded
Created
Modified
Stats Distance 2,961 nm / 5,484 km
Max Altitude 0 ft / 0 m
Waypoints 4
Social Downloads 2
Likes 0
Share VATSIM

Download

Looking for another format? Having issues loading an existing format? Contact us
Advertisement - Login to hide

Notes

Decoded

Route

PNA KOTUL TORIM MIQ

ID Type Via Altitude Latitude Longitude Leg Dist Tot Dist Heading (true) Name
O PNA NDB - 0 ft / 0 m 42.79708˚ -109.80347˚ - 0 nm - -
KOTUL FIX - 0 ft / 0 m 10.77808˚ -67.74036˚ 2914 nm 2914 nm 119° / 139° -
TORIM FIX - 0 ft / 0 m 10.68142˚ -67.57369˚ 11 nm 2926 nm 121° / 121° -
O MIQ VOR - 0 ft / 0 m 10.60947˚ -66.98967˚ 34 nm 2960 nm 97° / 97° MAIQUETIA VOR-DME

Altitude Profile

Advertisement - Login to hide

Weather


0- 5 10 15 20 25 30 35+ Temperature / ° C

Clouds and Precipitation
Forecast for 2018-05-23 18:00 UTC. Updated 6 minutes ago

Ground ~20,000 ft ~40,000 ft Winds

KPNA

Details ICAO KPNA
Name RALPH WENZ FLD
Region United States
Timezone America/Denver (UTC-6.0)
Stats Elevation 7,086 ft / 2,160 m (AMSL)
Location 42.797390° -109.811036°
Runways 1
Magnetic Variation 10.831° E

METAR

KPNA 231715Z AUTO 21008G18KT 10SM BKN031 BKN039 BKN050 12/05 A3008 RMK AO2 LTG DSNT SE AND S

Decode

TAF

TAF AMD KPNA 231434Z 2315/2412 VRB03KT P6SM SCT007 BKN029 TEMPO 2315/2316 BKN007 FM231600 19008KT P6SM VCSH SCT030 OVC050 FM232100 22012G20KT P6SM VCSH SCT030 OVC060 FM240100 28005KT P6SM VCSH FEW030 OVC080 FM240900 VRB03KT P6SM FEW040 OVC080 AMD LTD TO CLD VIS AND WIND

Decode

Departure Runways

ID Width Length Bearing (true) Bearing (mag) Surface Threshold Offset Overrun Length
11 98 ft / 30 m 8,878 ft / 2,706 m 123.69° 112.86° Asphalt 0 ft / 0 m 0 ft / 0 m
29 98 ft / 30 m 8,878 ft / 2,706 m 303.71° 292.88° Asphalt 0 ft / 0 m 0 ft / 0 m

SVMI

Details ICAO SVMI (CCS)
Name Caracas Simon Bolivar Intl
Region Venezuela
Timezone America/Caracas (UTC-4.0)
Stats Elevation 235 ft / 72 m (AMSL)
Location 10.603119° -66.990585°
Runways 2
Magnetic Variation 12.328° W

METAR

SVMI 231700Z 07006KT 9999 SCT016 SCT300 30/24 Q1011

Decode

TAF

Not found

Destination Runways

ID Width Length Bearing (true) Bearing (mag) Surface Threshold Offset Overrun Length
09 145 ft / 44 m 9,825 ft / 2,995 m 75.92° 88.25° Asphalt 0 ft / 0 m 0 ft / 0 m
10 148 ft / 45 m 11,472 ft / 3,497 m 88.14° 100.47° Asphalt 0 ft / 0 m 200 ft / 61 m
27 145 ft / 44 m 9,825 ft / 2,995 m 255.92° 268.25° Asphalt 0 ft / 0 m 0 ft / 0 m
28 148 ft / 45 m 11,472 ft / 3,497 m 268.15° 280.48° Asphalt 0 ft / 0 m 200 ft / 61 m

Approach Navaids

Runway Type Ident Frequency Range Bearing (true) Bearing (mag) Slope Elevation
10 Localiser IMIQ 110.10 MHz 18 nm / 33 km 87.90° 100.23° - 235 ft / 72 m (AMSL)
10 Glidescope IMIQ 110.10 MHz 10 nm / 19 km 88.14° 100.47° 3.00° 235 ft / 72 m (AMSL)
10 DME IMIQ 110.10 MHz 18 nm / 33 km - - - 235 ft / 72 m (AMSL)